Probability
11 14 15 15 17 21 23 21 18 16 13 11 9 8 6 5 6 6 6 6 6 6 7 8 8 8 7 5 3 2 2 3 4 3 2 2 5 7 10 13 16 15 13
17 19 18 17 17 19 21 21 18 16 14 12 10 9 8 7 8 8 8 8 8 8 8 9 9 9 9 7 6 5 4 3 3 4 3 3 5 7 8 12 14 14 13
24 25 23 21 19 18 18 19 20 19 17 14 11 10 11 10 10 10 11 11 11 11 11 11 12 14 13 11 10 9 7 5 5 4 4 4 5 7 8 9 11 11 9
27 29 29 27 23 20 19 21 23 23 20 16 13 12 13 12 11 11 14 16 16 15 14 14 17 18 17 14 11 10 10 9 7 6 6 5 5 6 7 8 8 7 6
28 32 34 31 27 24 24 27 29 28 24 19 16 14 14 12 11 13 16 18 20 20 18 19 21 22 22 18 13 11 13 13 10 7 8 7 5 5 5 6 7 7 7
27 32 36 34 30 27 26 30 35 35 30 22 18 16 14 12 11 14 17 19 22 25 26 27 28 27 26 23 18 15 15 15 12 9 9 9 7 5 4 4 5 7 9
24 29 33 33 32 29 27 31 39 41 36 28 21 19 16 14 15 17 18 19 23 27 30 33 35 31 27 24 20 18 18 17 14 11 10 10 8 6 6 5 4 6 8
21 25 29 30 31 30 30 36 44 46 41 34 28 25 22 21 21 21 20 20 21 24 28 32 34 31 25 22 19 18 18 18 17 14 13 13 10 8 8 6 5 5 6
20 24 26 27 28 30 34 40 47 48 44 39 35 31 28 27 26 25 22 22 23 25 27 29 30 28 23 21 20 17 17 18 19 17 17 17 13 11 10 9 7 5 5
19 23 24 23 24 28 33 40 46 47 43 41 39 37 34 33 31 29 26 27 29 31 31 30 29 27 25 23 22 19 18 19 18 17 17 17 15 13 10 10 9 7 6
17 20 21 21 23 26 31 37 41 43 41 41 43 43 42 40 37 34 32 34 36 36 34 32 30 29 26 24 23 19 17 17 16 16 15 15 15 13 10 8 8 7 6
16 19 21 22 25 29 34 37 38 37 37 40 44 46 47 46 43 40 39 41 42 40 37 35 33 30 26 24 23 20 17 16 16 15 14 13 13 13 11 8 8 7 7
21 24 27 30 32 36 39 39 36 33 35 41 46 48 49 50 49 47 47 48 48 46 43 42 39 33 29 27 25 24 23 21 19 17 15 13 12 13 14 12 10 10 9
28 31 37 40 41 43 44 40 35 32 36 44 50 52 53 54 55 55 54 55 54 52 52 50 45 38 34 30 27 27 27 25 22 19 17 15 14 15 16 16 15 15 15
30 33 38 42 44 46 47 43 38 37 41 49 54 56 57 57 58 58 58 59 57 56 58 56 49 41 34 28 26 26 27 26 24 21 18 16 15 15 15 15 16 18 18
30 32 35 38 41 44 48 49 46 45 49 53 56 58 61 61 60 59 61 62 61 60 61 58 50 40 29 21 19 22 23 24 25 23 21 18 14 13 13 13 13 13 14
32 33 36 38 40 43 48 53 54 54 55 56 58 61 63 64 63 61 62 63 63 64 65 61 51 37 24 15 11 13 18 20 23 25 25 21 15 13 14 13 11 10 10
34 34 36 39 42 45 49 53 57 58 58 58 60 63 65 64 63 61 61 61 61 63 65 62 53 39 24 13 8 8 14 20 22 26 27 23 18 16 15 15 14 13 12
39 37 35 38 44 48 50 53 56 59 59 58 60 63 64 62 59 58 56 56 57 57 57 55 50 40 27 16 8 7 16 22 24 25 24 20 17 14 13 13 14 14 14
42 39 36 38 44 49 51 52 54 57 57 56 57 58 59 57 55 54 52 50 50 50 48 46 42 37 29 18 9 9 17 23 25 24 21 16 12 9 7 9 11 12 12
38 37 37 40 46 52 54 52 52 54 54 52 51 50 50 51 50 50 47 44 43 44 43 39 36 33 28 20 11 8 13 20 24 23 20 15 9 5 3 4 7 8 7
35 37 41 44 47 52 54 53 52 51 50 46 44 43 44 46 46 45 42 39 39 39 38 36 34 32 27 20 12 6 6 13 20 21 17 13 8 3 2 2 2 2 2
38 40 45 48 48 48 49 49 48 46 43 41 40 40 41 42 41 40 37 36 35 34 34 32 31 29 25 19 12 5 3 7 12 15 13 9 6 4 4 4 2 1 1
42 43 45 46 46 45 42 41 41 41 39 37 37 37 38 37 35 33 31 31 30 28 28 28 26 24 22 17 13 9 6 6 8 10 11 9 8 7 8 7 6 4 3
39 39 39 39 40 40 38 37 39 39 37 35 33 31 30 31 29 25 23 23 22 20 20 21 21 19 15 13 11 9 8 8 9 11 13 12 12 11 11 10 9 8 7
34 34 33 33 35 37 36 36 39 39 37 33 30 26 24 26 25 20 18 17 15 13 13 15 17 15 10 7 6 5 6 7 9 12 14 15 14 14 13 12 11 11 11
Wind_Speed
13 12 12 12 11 9 8 6 5 4 2 2 2 2 2 1 2 2 3 2 1 1 1 1 1 1 1 1 1 0 1 1 1 1 0 1 2 3 3 2 2 2 3
13 12 12 11 11 10 8 7 6 5 4 2 2 2 2 2 2 2 3 2 2 1 2 1 0 1 1 1 1 1 1 1 1 1 1 1 1 2 2 3 3 3 2
14 13 12 11 11 10 10 8 6 6 5 4 3 2 1 1 1 2 2 1 2 2 1 2 0 0 1 1 1 1 1 1 2 1 1 1 1 1 1 2 2 2 1
14 14 13 12 11 11 10 8 7 5 5 4 3 3 3 2 2 2 2 2 2 2 2 2 1 1 0 1 2 1 2 2 2 1 1 1 1 1 1 1 1 3 3
14 14 14 12 11 11 10 9 7 6 5 4 4 3 2 2 2 2 3 3 2 2 1 1 1 1 1 1 1 0 1 1 1 1 1 1 2 2 1 1 1 2 2
13 13 13 11 10 10 9 10 8 6 5 5 4 3 3 2 2 2 2 3 2 2 2 2 1 1 1 1 1 1 1 1 1 1 1 1 1 1 1 2 2 2 2
11 13 13 12 10 10 10 9 9 7 6 6 5 4 3 3 3 3 3 3 2 2 1 1 1 1 1 1 1 1 1 1 1 2 2 1 1 1 1 1 1 1 1
10 11 12 12 10 10 10 9 9 8 7 6 5 4 4 3 3 3 2 2 1 1 2 2 2 1 1 1 1 2 2 2 2 3 2 2 2 1 1 1 1 1 1
11 11 11 11 10 9 8 9 9 8 8 7 5 5 4 4 3 2 2 2 1 2 2 2 2 2 1 1 1 1 2 1 2 2 2 1 1 1 1 1 0 1 1
10 10 9 10 10 9 8 8 8 8 7 7 7 6 5 4 3 3 3 2 2 1 2 2 2 2 2 2 2 2 2 2 2 1 1 1 1 1 1 1 1 1 1
9 10 9 9 9 9 9 9 8 8 7 7 6 5 5 5 4 4 3 3 2 2 3 3 2 2 2 2 2 2 2 2 2 2 2 2 1 1 2 2 1 1 1
8 8 8 8 8 8 8 8 8 8 7 6 6 5 5 5 4 4 4 3 3 3 3 2 2 3 2 2 2 3 3 2 2 2 2 2 2 1 1 2 2 1 1
6 7 7 7 7 7 6 7 7 7 7 6 6 5 5 5 4 4 4 4 3 3 3 3 3 2 2 2 2 2 2 2 2 2 2 2 2 1 2 2 2 2 2
5 5 6 5 4 4 4 5 6 6 6 6 6 6 5 5 5 4 3 4 4 4 3 3 3 3 2 2 2 2 2 2 2 2 2 2 1 1 2 2 2 2 2
5 4 5 4 4 3 3 3 4 4 4 5 6 6 5 4 4 3 4 4 3 4 3 3 2 2 2 2 2 2 2 2 2 2 1 1 1 0 1 2 2 2 2
4 4 4 4 3 3 3 3 3 3 4 4 4 4 4 4 4 3 3 3 3 3 3 3 2 2 2 1 1 1 1 1 1 1 1 2 2 1 1 2 3 3 2
3 3 2 2 3 3 3 3 2 2 3 3 3 3 4 4 3 3 3 3 3 3 3 3 3 2 1 0 0 1 2 2 1 1 1 2 0 2 1 2 3 3 4
3 2 2 2 2 3 3 2 3 3 3 3 3 3 3 3 3 3 2 2 2 2 2 2 2 2 1 1 0 1 3 2 1 1 1 0 0 2 2 2 2 2 2
2 2 2 2 2 1 2 3 3 3 3 3 3 3 3 3 3 3 3 2 2 2 2 2 2 2 1 1 1 1 2 2 2 1 1 1 0 0 2 2 2 2 2
2 2 1 1 2 2 2 2 3 3 2 2 2 3 3 3 3 3 2 2 2 2 2 2 2 2 2 2 2 2 2 2 2 2 2 1 1 1 1 1 2 3 3
3 2 1 2 2 2 2 2 2 2 2 2 2 2 3 3 3 3 2 2 2 2 2 2 2 2 2 2 2 2 1 2 2 1 2 1 3 3 3 3 2 3 3
3 2 2 2 2 2 2 2 2 2 2 2 2 2 2 2 3 3 3 3 2 3 2 2 2 1 2 2 1 2 3 3 2 1 1 1 2 2 2 2 3 4 4
3 3 3 3 2 2 2 2 2 3 4 3 3 3 3 2 2 3 3 2 2 2 2 2 2 1 1 1 2 3 3 3 2 1 1 1 2 2 2 4 5 4 2
2 2 3 3 3 2 2 2 3 3 3 3 3 3 3 3 2 2 2 1 1 1 1 1 1 1 1 1 1 1 1 2 1 2 3 3 4 4 3 2 3 3 3
2 2 2 3 3 2 3 2 3 3 3 3 3 2 3 3 3 3 2 2 1 0 0 0 1 1 1 1 1 1 1 1 1 1 2 1 1 2 2 2 2 2 2
2 2 2 2 2 2 2 2 2 2 2 2 2 2 3 3 3 4 3 4 3 2 2 2 2 2 2 3 2 1 1 1 1 1 1 2 2 2 2 2 2 1 1
Wind_Direction
161 158 158 156 154 150 152 155 156 148 157 163 172 182 163 174 156 144 139 138 140 98 86 58 126 105 96 99 105 158 233 227 183 165 225 246 210 200 199 204 201 178 166
159 159 163 162 160 156 158 159 167 166 177 177 184 195 171 174 146 123 134 146 149 169 149 121 200 118 146 159 183 198 233 247 189 180 174 234 226 252 220 183 193 190 173
165 165 168 167 164 164 168 173 169 170 178 188 191 189 170 167 141 140 135 153 168 156 127 134 152 181 164 150 220 205 233 245 235 206 195 204 207 193 205 200 172 152 176
168 167 171 172 171 170 169 163 163 171 176 193 202 202 182 178 176 157 153 167 182 170 163 159 164 215 123 147 238 171 256 232 252 222 222 222 215 195 183 235 182 181 193
171 169 172 174 173 172 169 161 160 170 179 193 199 208 202 187 170 161 162 171 176 184 171 170 180 183 168 195 257 242 270 257 269 272 243 233 237 235 195 211 216 212 196
166 165 167 166 171 171 169 161 160 170 179 192 195 198 202 202 187 191 182 195 184 182 183 181 177 198 178 207 222 248 245 272 293 292 292 270 257 248 212 215 220 212 219
163 163 165 167 171 173 172 164 164 172 181 190 196 194 201 206 201 216 214 217 190 176 193 159 151 201 195 204 199 217 246 255 267 279 284 286 277 270 260 230 242 224 224
161 163 165 167 172 176 173 166 167 174 181 187 191 195 202 211 206 215 230 208 213 181 164 154 161 193 208 214 208 227 215 219 236 252 261 281 287 294 271 259 279 268 245
167 164 163 165 168 173 173 170 165 171 180 186 185 188 195 217 217 200 213 219 210 199 154 163 172 187 201 230 227 242 251 225 227 255 268 268 287 304 308 308 278 250 260
164 157 163 166 168 173 172 170 169 171 176 182 190 194 196 205 205 208 213 211 202 181 157 173 187 200 204 217 231 237 235 226 220 224 251 272 303 306 310 301 306 294 280
165 161 164 163 165 169 173 175 169 172 180 186 189 191 185 196 200 206 217 210 197 193 194 192 197 209 212 222 230 235 243 228 230 238 222 226 259 305 310 316 313 305 297
157 160 157 158 164 170 173 172 174 180 184 186 183 189 185 190 197 204 202 199 199 206 205 198 209 219 210 218 231 243 233 230 232 238 236 236 233 223 272 294 286 286 271
148 152 152 156 163 167 169 172 178 183 184 183 184 184 190 190 194 203 193 189 200 206 210 199 204 215 218 228 230 238 234 236 241 229 229 239 243 250 268 272 292 296 292
137 143 137 134 141 148 155 168 183 184 186 183 186 184 192 194 192 199 199 197 203 208 207 207 205 205 211 234 237 239 238 232 233 228 234 244 236 254 281 278 288 298 306
135 130 129 130 136 140 157 174 180 180 185 182 188 188 187 189 183 192 198 198 202 210 201 204 198 191 202 228 233 237 230 226 231 224 208 205 174 239 280 300 316 307 300
141 133 130 141 150 157 171 174 181 176 170 179 183 170 174 183 186 192 193 197 197 203 201 199 186 203 224 256 220 235 244 222 223 234 226 209 187 175 233 271 269 264 264
126 121 133 151 162 170 166 171 170 163 159 162 164 163 174 183 189 192 186 199 202 200 195 186 179 179 123 359 316 251 252 237 220 219 239 267 265 180 219 249 245 247 245
126 126 137 143 163 175 167 158 157 158 162 162 171 168 172 178 171 175 179 189 189 191 187 182 180 159 146 139 145 294 240 247 242 224 205 177 308 325 333 288 273 252 239
103 113 133 145 127 123 145 149 154 155 163 168 171 171 176 174 171 180 176 173 178 183 183 165 161 151 153 172 151 267 235 235 232 226 218 250 217 12 340 319 307 298 287
93 99 112 104 116 118 121 145 155 149 155 168 173 169 167 169 168 172 168 163 172 174 176 175 169 163 166 179 189 216 249 239 219 191 185 201 216 224 241 249 272 279 284
98 90 104 105 95 100 119 128 141 149 143 143 149 158 166 165 153 154 156 155 170 169 180 183 174 169 167 180 200 197 254 276 248 219 207 203 191 211 232 244 255 263 282
110 110 104 100 95 100 120 132 132 118 110 112 120 124 132 155 149 155 160 167 172 176 189 191 175 160 151 171 211 198 225 281 282 276 289 102 167 202 238 257 276 281 286
98 95 99 92 94 114 139 143 116 112 118 119 119 117 115 110 121 139 148 159 172 194 188 186 180 154 140 148 195 200 228 266 266 301 299 212 220 231 245 254 265 277 273
103 102 103 102 86 85 96 114 111 104 112 123 132 139 134 125 112 112 117 120 134 187 184 189 172 149 140 139 138 211 238 268 263 291 284 248 240 246 272 277 251 246 254
97 105 111 106 94 89 99 103 115 126 135 143 148 148 135 128 116 103 82 106 87 96 217 151 131 168 170 214 176 187 242 277 298 276 260 259 238 242 248 250 248 248 239
107 105 114 111 106 99 101 95 114 133 142 152 162 168 158 145 143 140 123 62 86 104 119 107 112 100 127 156 159 163 187 255 216 213 242 254 257 267 277 279 274 268 267